Theta_e
315 313 313 313 311 310 309 309 307 306 305 305 305 305 304 304 303 303 303 302 301 301 301 301 301 300 299 299 298 298 298 298 297 296 297 298 299 298 297 297 295 294 295
310 310 309 308 308 309 308 307 306 305 305 304 304 304 304 303 303 302 301 301 301 301 301 301 301 300 300 299 299 300 300 300 299 298 299 300 300 299 298 296 295 294 294
309 309 308 307 306 306 305 305 305 304 304 304 304 303 302 303 302 301 302 302 302 301 301 301 301 301 301 301 301 301 300 300 299 299 298 298 299 299 298 296 294 294 294
307 307 307 307 306 306 305 305 304 304 303 304 303 303 302 302 302 302 302 303 302 303 303 303 303 303 303 303 302 302 302 302 300 299 299 299 298 298 297 296 295 294 294
305 305 305 305 305 303 303 302 302 302 302 302 302 302 302 302 302 302 303 303 301 301 301 301 301 302 303 305 304 304 304 304 302 299 298 298 298 299 298 295 294 294 294
305 304 303 303 303 304 304 303 302 301 300 301 300 300 301 302 302 302 303 302 301 301 299 299 299 300 301 302 303 304 303 304 304 301 300 298 299 299 296 294 294 293 293
305 304 304 304 303 302 303 303 302 301 301 301 301 301 302 302 302 301 301 301 302 300 300 302 303 303 303 303 303 304 304 304 304 304 303 301 300 296 295 294 295 294 294
304 304 305 304 303 301 300 301 302 301 300 300 301 302 302 301 301 302 302 302 304 304 304 304 304 304 304 303 304 305 304 303 304 303 301 297 296 294 294 295 294 295 294
305 305 306 305 305 305 304 304 302 302 302 302 302 302 302 303 303 304 304 305 305 305 305 305 306 305 304 303 304 304 302 301 298 297 297 296 295 294 295 294 295 294 293
307 307 307 307 307 306 305 304 304 304 304 304 304 304 305 305 305 305 305 305 305 305 306 306 306 305 304 304 303 300 297 299 298 297 296 295 296 296 295 295 294 294 293
307 308 307 307 306 306 305 305 305 305 305 305 305 305 306 306 307 307 306 307 307 307 307 306 306 304 304 304 304 302 299 297 296 295 295 296 295 294 294 293 294 293 293
308 308 308 308 307 307 306 306 305 305 305 306 306 307 307 307 307 308 308 308 308 308 307 306 305 304 303 302 300 298 297 296 294 295 296 295 294 294 293 293 293 293 291
307 307 306 306 306 306 306 306 306 307 307 307 307 307 308 308 308 307 306 304 305 305 304 304 303 301 301 300 299 297 295 293 295 295 295 294 294 294 292 292 293 291 291
307 306 306 306 305 306 307 307 307 307 307 307 307 308 308 308 308 306 304 303 304 303 301 300 300 301 300 298 296 294 294 295 295 295 295 294 294 293 292 292 291 291 290
306 306 306 307 307 308 308 308 308 308 308 308 308 308 308 307 307 305 300 299 298 298 298 297 297 297 297 296 293 294 295 296 296 296 295 294 293 292 292 291 290 290 288
306 305 306 306 306 307 307 307 308 308 308 308 308 308 308 307 305 299 297 297 297 296 295 294 293 293 292 292 293 294 295 295 296 295 295 294 292 292 291 290 290 288 287
307 307 306 307 307 306 308 308 308 309 308 308 307 306 307 305 303 299 298 297 297 295 294 294 294 293 293 294 295 295 296 296 295 295 294 293 292 291 290 290 289 287 286
304 306 306 306 306 307 308 308 308 308 308 308 307 307 306 305 303 300 299 298 296 295 294 294 294 294 294 296 296 296 296 296 295 294 294 292 291 290 290 289 287 286 286
307 306 306 306 307 307 308 308 308 308 307 308 308 307 307 306 305 303 300 300 298 296 295 294 295 295 295 295 295 296 296 295 294 294 292 292 291 290 289 288 287 286 286
307 308 308 308 307 307 308 308 308 308 306 306 307 307 306 305 304 304 303 300 299 298 296 296 295 295 295 295 294 295 296 294 294 292 293 292 291 290 288 287 287 286 285
309 309 309 309 308 309 308 308 308 307 303 302 303 303 303 304 305 304 303 303 302 301 300 297 295 295 296 295 295 295 296 294 294 293 293 292 290 289 288 287 287 286 285
309 309 309 309 309 308 307 307 307 304 303 303 303 302 302 302 302 302 302 302 300 299 298 297 295 294 294 295 296 295 295 294 293 293 293 291 289 288 287 287 286 285 285
310 310 310 308 307 306 305 305 305 304 304 302 302 301 301 301 299 299 298 298 298 297 298 297 296 295 295 298 295 295 294 293 293 293 292 290 288 287 287 286 285 285 285
310 309 308 307 307 305 305 305 303 301 301 302 301 300 299 299 298 298 299 299 299 299 298 297 297 298 297 295 294 295 294 293 293 293 290 288 288 287 286 286 285 284 284
309 309 307 307 306 305 304 302 301 302 301 300 299 299 298 297 297 296 296 296 297 297 297 297 297 295 294 295 295 294 293 292 292 289 288 287 287 287 286 284 284 284 284
309 307 306 305 304 304 302 301 298 297 295 294 294 294 293 293 293 294 294 294 295 295 294 294 294 294 293 293 292 292 291 291 288 287 287 287 287 286 284 284 284 284 284
Wind_Speed
19 20 18 16 19 22 26 25 23 20 17 16 16 15 16 16 15 16 15 16 19 19 17 19 18 15 15 14 13 13 13 10 7 3 4 8 12 15 19 21 20 18 15
22 24 24 22 25 29 23 22 21 20 16 15 13 15 17 16 15 15 16 15 16 16 15 14 14 13 14 12 10 12 11 9 5 2 3 9 15 18 22 22 24 20 20
26 24 24 20 21 23 18 15 15 17 17 15 14 14 16 16 14 14 14 15 14 11 9 8 8 6 6 5 6 5 4 2 1 1 5 9 14 17 23 21 24 22 20
23 24 26 24 21 19 17 16 12 12 13 15 13 13 14 15 13 13 13 12 10 7 6 5 4 2 3 3 3 4 5 7 8 10 12 14 14 18 16 23 22 24 26
18 18 17 16 15 15 21 17 14 11 12 12 12 11 11 12 11 9 11 8 4 2 1 1 0 3 5 6 5 8 11 13 12 14 15 16 18 19 22 21 25 28 28
10 10 8 9 9 9 6 11 12 13 12 11 9 9 8 8 7 5 10 4 2 4 5 4 5 6 5 6 7 9 12 15 17 18 19 18 20 23 26 23 25 21 10
8 8 9 12 15 14 14 16 15 13 11 10 9 9 8 7 5 7 10 7 6 6 7 9 8 7 7 9 11 13 14 16 18 21 21 18 20 23 25 26 27 25 22
10 9 11 13 11 13 14 14 13 11 11 10 11 12 9 9 9 8 9 11 12 12 13 13 15 15 12 14 17 17 19 17 13 10 12 15 21 23 21 26 28 33 34
12 12 10 12 11 9 10 9 10 8 10 10 8 9 11 11 10 9 10 13 15 15 15 16 18 20 19 16 15 16 14 11 9 11 15 19 22 21 22 25 27 25 22
14 14 11 10 10 9 10 10 8 9 9 8 10 10 10 9 8 11 11 14 18 19 19 19 18 15 13 13 11 10 11 14 16 19 21 21 19 20 19 21 24 23 23
13 12 11 13 13 13 12 11 10 12 12 13 14 12 13 13 13 14 15 17 19 19 19 19 17 14 13 16 17 16 15 17 19 22 22 19 18 20 21 22 21 22 26
14 13 13 16 17 16 17 15 15 15 15 15 14 13 13 12 13 13 14 13 15 16 17 15 13 13 13 14 12 14 18 20 23 20 18 17 20 21 21 21 23 23 26
11 8 11 12 13 15 15 15 13 11 12 14 13 13 14 13 12 10 10 9 9 8 7 9 11 13 12 14 15 16 20 20 18 16 18 21 23 22 22 26 23 26 31
10 13 11 12 14 13 12 11 12 13 14 15 15 15 15 14 12 10 10 8 7 9 8 11 12 13 14 16 18 19 15 15 16 19 23 25 25 23 24 21 26 30 29
12 12 13 13 13 12 12 13 14 15 15 16 16 16 16 15 14 11 9 9 9 8 10 11 14 16 19 19 17 15 14 15 19 22 23 25 25 23 21 23 27 26 28
16 14 15 15 14 14 14 14 14 15 16 14 13 15 15 15 11 9 9 10 12 12 13 16 17 17 18 18 18 19 20 21 21 21 22 24 23 19 22 25 22 26 31
20 19 18 18 19 17 16 15 16 15 14 15 15 16 15 14 14 15 15 14 14 16 20 20 20 20 21 21 21 21 22 22 21 22 24 24 17 19 22 22 24 29 26
25 24 21 20 20 19 19 19 17 17 19 22 22 21 20 19 19 20 20 18 20 23 27 28 28 26 26 26 24 22 22 22 22 23 22 16 18 20 20 21 25 27 25
26 25 24 23 24 23 22 20 20 21 21 24 27 24 24 25 24 24 22 27 31 32 34 35 34 34 32 30 28 24 24 22 20 20 17 18 20 18 19 21 26 29 27
30 29 29 27 23 22 24 24 24 24 23 25 26 27 26 23 25 30 33 36 38 41 41 42 41 39 36 35 32 27 24 21 19 19 18 19 19 16 19 21 26 25 25
31 31 30 27 26 25 25 26 26 26 24 23 24 24 23 26 32 34 33 35 41 45 46 41 40 42 40 35 30 25 22 22 19 20 17 19 16 16 18 21 26 28 26
32 31 28 30 27 25 26 27 26 25 23 21 23 24 23 22 24 28 31 33 32 32 34 35 35 33 36 29 23 25 20 19 20 16 17 17 14 16 18 23 27 26 24
31 29 29 28 26 25 24 23 23 22 19 16 13 10 7 7 8 10 13 16 19 23 27 29 31 28 28 32 28 23 17 15 17 17 16 14 13 15 18 24 26 25 22
33 34 34 32 29 26 24 21 17 14 10 9 9 8 5 4 7 10 13 17 20 19 20 24 28 32 31 22 22 19 20 19 16 19 14 11 12 15 19 24 25 25 23
34 36 37 34 32 29 21 17 14 14 14 12 10 6 3 5 8 10 11 13 15 13 13 15 15 18 15 10 10 13 15 11 16 15 11 11 12 16 20 23 24 25 24
36 37 34 28 27 21 16 13 9 5 2 4 6 8 9 10 10 9 8 9 9 8 11 5 2 6 10 11 9 5 7 14 14 11 10 11 14 18 21 21 22 22 20
Wind_Direction
106 124 118 143 145 146 149 141 145 138 142 148 145 145 141 138 135 127 121 122 116 112 111 112 105 103 100 96 91 91 89 87 102 98 15 5 3 1 3 1 359 355 349
114 122 122 123 136 146 143 146 139 134 142 146 147 144 145 135 135 132 126 121 116 114 108 107 108 104 95 92 89 89 91 90 104 133 331 345 348 350 350 349 352 350 347
121 120 114 117 126 125 127 128 131 138 144 144 141 140 132 139 133 132 127 122 113 105 99 99 104 100 102 100 85 79 61 38 312 263 293 311 322 337 340 343 342 341 340
121 120 122 127 128 122 128 130 135 143 145 142 147 143 130 128 133 129 123 114 116 109 104 103 84 19 335 315 302 315 306 304 306 294 298 301 308 326 331 332 328 332 333
113 113 114 119 124 127 127 127 130 146 147 151 156 145 145 136 141 132 140 135 125 140 178 135 270 277 280 293 289 296 296 299 282 278 281 292 310 321 324 328 322 326 326
122 119 131 140 140 136 136 132 159 169 174 170 162 156 153 141 152 162 173 172 242 311 299 299 303 304 306 297 304 305 311 305 289 284 288 289 302 312 316 316 315 313 318
130 146 175 169 161 165 174 184 186 189 186 178 175 195 194 199 206 209 202 229 265 266 268 286 298 316 316 308 307 305 308 306 292 283 282 284 289 306 309 308 313 307 292
164 185 199 192 185 172 173 186 189 188 201 205 211 210 217 232 218 217 217 242 267 272 272 278 285 289 291 300 305 299 301 297 299 284 286 296 300 303 297 301 307 305 305
201 206 213 211 210 205 214 192 182 192 209 212 215 216 226 236 236 237 252 266 270 272 277 281 281 284 278 273 280 292 293 296 302 303 300 301 300 297 297 300 302 307 304
229 227 223 225 222 216 216 218 219 226 235 243 245 244 252 261 256 261 263 266 271 276 281 285 287 285 271 258 271 275 280 291 302 305 304 302 300 302 303 303 306 295 291
242 244 235 236 229 227 227 231 235 243 249 254 259 261 267 269 276 276 272 272 271 277 281 285 285 285 277 280 284 269 268 299 302 302 297 296 301 304 303 304 294 289 293
261 247 243 238 236 237 239 244 246 249 252 257 260 267 267 271 270 272 274 273 269 268 270 275 275 278 283 282 274 272 277 294 296 291 289 294 299 299 304 304 293 289 295
242 226 221 221 225 229 234 234 226 222 230 240 242 254 266 264 262 266 275 279 270 262 269 272 284 288 280 275 279 283 288 287 285 277 283 287 290 296 299 304 298 300 300
200 185 178 188 199 200 205 209 222 235 240 251 255 259 267 263 253 256 268 255 252 264 274 283 277 269 271 277 285 288 279 282 283 282 281 285 290 290 300 303 304 307 308
199 203 196 188 195 208 222 234 242 257 262 265 267 270 269 263 257 257 246 244 254 261 265 264 263 268 273 277 275 267 273 278 287 285 286 287 286 291 296 304 306 309 311
220 216 211 214 220 234 240 253 262 269 272 267 271 265 261 254 258 246 250 251 251 248 248 254 261 265 268 272 276 284 286 287 287 287 284 286 282 289 297 304 304 312 312
226 226 225 230 238 235 247 252 268 276 254 255 256 250 251 263 250 242 240 241 242 242 247 257 262 261 254 259 269 279 282 282 284 282 285 285 277 290 297 298 308 319 308
225 233 239 241 241 247 250 254 265 268 265 256 256 252 251 249 244 243 240 236 239 241 248 253 256 259 253 254 261 270 281 278 279 280 282 268 283 289 290 299 313 316 310
229 236 242 249 253 255 257 264 259 260 264 260 262 260 255 249 250 251 246 242 246 250 253 255 258 260 261 261 262 266 277 270 272 274 264 277 283 279 288 302 315 319 311
237 241 247 246 255 257 253 252 253 254 258 261 263 267 270 260 252 251 246 244 246 251 255 257 260 260 261 264 268 268 271 257 263 256 271 278 278 277 290 307 317 315 310
239 237 237 237 242 242 244 246 251 249 256 260 259 265 276 266 261 264 266 260 255 254 255 255 256 258 260 266 269 262 261 260 263 267 274 277 269 281 298 310 318 321 313
240 239 238 231 231 232 241 245 246 249 257 266 274 278 286 285 277 272 275 277 273 270 270 267 265 266 266 262 281 247 252 270 274 268 281 267 270 288 304 313 320 323 314
230 232 232 221 225 235 241 244 248 254 264 274 278 275 277 279 280 284 285 290 295 296 292 283 279 274 272 279 259 232 240 254 276 280 274 258 274 293 309 313 320 322 315
230 226 221 223 229 232 237 241 241 253 250 218 211 216 231 293 315 316 316 313 303 296 291 291 287 282 274 242 220 225 231 243 258 268 250 258 281 298 309 313 321 324 316
229 223 226 231 233 232 231 232 231 212 208 213 221 236 282 326 325 324 320 310 307 310 307 296 294 272 228 221 225 247 245 254 258 240 247 266 287 304 309 313 320 324 319
228 229 232 233 233 230 216 190 172 163 83 32 16 19 27 38 32 27 9 356 349 326 327 354 47 222 241 260 267 262 263 256 226 238 256 281 299 306 310 316 323 324 313